Tracking 26922 objects as of 30-Jan-2023
HD Live streaming from Space Station
objects crossing your sky now

SL-8 R/B

Track SL-8 R/B now!
10-day predictions


NORAD ID: 7686
Int'l Code: 1975-016J
Perigee: 1,463.6 km
Apogee: 1,726.3 km
Inclination: 74.0 °
Period: 117.9 minutes
Semi major axis: 7965 km
RCS: 6.1934 m2 (large)
Launch date: February 28, 1975
Source: Commonwealth of Independent States (former USSR) (CIS)
Launch site: PLESETSK MISSILE AND SPACE COMPLEX (PKMTR)

Note: This is a ROCKET BODY
Your satellite tracking list
Your tracking list is empty




NASA's NSSDC Master Catalog

Two Line Element Set (TLE):
1 07686U 75016J   23028.93115242 -.00000039  00000-0 -21225-3 0  9997
2 07686  74.0005 283.6790 0164906 239.8187 129.1483 12.21079115135459
Source of the keplerian elements: AFSPC